www.pogodaiklimat.ru

Погода и климат >> Архив погоды >> Россия >> Ростовская область >> Ростов-на-Дону


АРХИВ ПОГОДЫ в Ростове-на-Дону

Время (UTC), дата Ветер
(напр.,м/с)
 
Видим.   Явления Облачность Т
(С)
Тd
(С)
f
(%)
Тe
(С)
Тes
(С)
Комфортность P
(гПа)
Po
(гПа)
Тmin
(С)
Tmax
(С)
R
(мм)
R24
(мм)
S
(см)
06 13.02 н/о 9/4 600 м
[Sc Ac und]
-0.7 -2.8 86 1020.2 1009.7
09 13.02 н/о 10/8 600 м
[Sc Ac und]
+4.0 -0.7 71 1021.4 1011.0
12 13.02 н/о 9/0
[Ac trans]
+6.9 +2.4 73 1021.0 1010.8
15 13.02 н/о 9/0
[Ac trans]
+3.7 +0.5 80 1022.3 1011.9 +7.8
18 13.02 н/о 10/10 300 м
[St]
+2.3 -1.5 76 1024.0 1013.5
21 13.02 н/о 10/10 300 м
[St]
+1.2 -2.0 79 1024.7 1014.2
00 14.02 н/о
03 14.02 н/о 10/0
[Ac und]
-2.2 -6.9 70 1026.2 1015.5 -2.2 <0.5
06 14.02 н/о 3/0
[Ci fib]
-1.0 -7.0 64 1027.3 1016.7 -3.3
09 14.02 н/о 3/0
[Ci fib]
+1.9 -7.4 50 1027.4 1016.9
12 14.02 н/о 5/0
[Ci fib]
+2.6 -8.7 43 1026.4 1015.9
15 14.02 н/о 3/0
[Ci fib]
+0.1 -7.1 58 1027.0 1016.4 +3.0
18 14.02 н/о 4/0
[Ci fib]
-1.0 -8.9 55 1028.0 1017.4
21 14.02 н/о ясно -2.4 -8.0 65 1028.1 1017.4
00 15.02 н/о 3/0
[Ci fib]
-3.1 -8.4 67 1028.2 1017.5
03 15.02 н/о ясно -4.3 -8.7 71 1029.1 1018.3 -4.4 <0.5
06 15.02 н/о 4/0
[Ac trans Ci fib]
-2.8 -9.0 62 1029.1 1018.4 -4.7
09 15.02 н/о 3/0
[Ac trans]
+0.5 -8.3 52 1028.7 1018.1
12 15.02 н/о ясно +1.8 -7.7 49 1026.7 1016.2
15 15.02 н/о ясно -0.8 -8.1 58 1026.3 1015.7 +2.1
18 15.02 н/о ясно -3.5 -7.4 74 1025.3 1014.6
21 15.02 н/о ясно -4.7 -7.2 83 1024.3 1013.6
00 16.02 н/о 8/0
[Ac trans]
-2.8 -6.4 76 1021.8 1011.2
03 16.02 н/о 9/5 600 м
[Sc Ac trans]
-2.4 -5.4 80 1020.6 1010.0 -4.8
06 16.02 н/о слаб. снег 10/6 600 м
[Sc Ac und]
-1.2 -3.2 86 1020.1 1009.5
09 16.02 н/о дымка {снег} н/о +0.3 -1.7 86 1019.9 1009.4
12 16.02 н/о дымка {снег} 10/8 600 м
[St Ac und]
+1.9 -1.5 78 1018.9 1008.5
15 16.02 н/о дымка 10/8 600 м
[St Ac und]
+1.9 -1.4 79 1019.1 1008.7 +2.0 0.0
18 16.02 н/о дымка 10/6 600 м
[St Ac und]
+1.5 -1.4 81 1019.9 1009.5
21 16.02 н/о дымка 10/6 600 м
[Sc Ac und]
+1.2 -1.5 82 1020.1 1009.6
00 17.02 н/о 10/8 600 м
[Sc Ac und]
+0.9 -1.5 84 1019.5 1009.0
03 17.02 н/о 10/6 600 м
[Sc Ac und]
+0.8 -2.7 77 1018.5 1008.0 +0.8
06 17.02 н/о 10/8 600 м
[Sc Ac und]
+0.3 -1.3 89 1017.9 1007.4 +0.3
09 17.02 н/о 10/8 600 м
[Sc Ac und]
+1.2 -0.9 86 1016.1 1005.7
12 17.02 н/о 10/5 600 м
[Sc Ac und]
+1.4 -0.4 88 1013.3 1002.9
15 17.02 н/о 10/6 600 м
[Sc Ac und]
+2.2 +0.2 87 1010.5 1000.2 +2.3
18 17.02 н/о дымка 8/8 600 м
[Sc]
+3.7 +1.9 88 1009.2 999.0
21 17.02 н/о дымка 10/6 600 м
[Sc Ac und]
+3.3 +1.1 85 1009.2 998.9
00 18.02 н/о дымка 10/6 600 м
[Sc Ac und]
+3.3 -0.7 75 1009.6 999.3
03 18.02 н/о дымка 8/8 600 м
[Sc]
+1.9 -1.3 79 1009.8 999.5 +1.9
06 18.02 н/о 6/0
[Ac trans]
+1.9 -2.3 74 1012.3 1001.9 +0.8
09 18.02 н/о 5/5 600 м
[Sc]
+3.9 -6.3 47 1013.6 1003.3
12 18.02 н/о 8/8 600 м
[Sc]
+3.7 -7.3 44 1014.5 1004.2
15 18.02 н/о 3/3 600 м
[Sc]
+0.8 -7.0 56 1016.7 1006.3 +4.8
18 18.02 н/о 5/0
[Ac trans]
-1.1 -8.1 59 1018.8 1008.3
21 18.02 н/о 10/5 600 м
[Sc Ac und]
-0.9 -9.2 53 1020.8 1010.2
00 19.02 н/о ясно -3.5 -9.2 65 1022.7 1012.0
03 19.02 н/о ясно -5.3 -9.7 71 1024.0 1013.2 -5.4
06 19.02 н/о 3/0
[Ci fib]
-3.8 -10.0 62 1026.3 1015.6 -6.1
09 19.02 н/о ясно -0.2 -12.6 39 1027.5 1016.9
12 19.02 н/о ясно +1.1 -11.9 37 1027.3 1016.7
15 19.02 н/о ясно -0.9 -11.5 44 1027.8 1017.2 +1.5
18 19.02 н/о ясно -3.3 -10.9 56 1027.8 1017.1
21 19.02 н/о ясно -4.1 -10.6 61 1027.1 1016.4
00 20.02 н/о ясно -4.5 -11.6 58 1025.8 1015.1
03 20.02 н/о ясно -5.1 -12.8 55 1024.3 1013.5 -5.1

 

Местоположение метеостанции Ростов-на-Дону (Ростовская область, Россия): широта 47.27 долгота 39.82 высота над уровнем моря 75 м.

В архиве по умолчанию представлена погода в Ростове-на-Дону за последнюю неделю. Архивные данные за месяц целиком и за предыдущие месяцы, начиная с января 2011 года, Вы можете получить, выбрав интересующий диапазон дат из раскрывающегося списка и нажав кнопку "Ввод!".


*Определитесь, кто Вы:
робот инопланетянин человек

Внимание! Время в таблицах - всемирное. Для получения местного времени необходимо прибавить поправку, которая равна 3 ч.

Смотрите также архив погоды в соседних городах и на ближайших метеорологических станциях:

Погода в Аэропорту Платов (Ростовская область, Россия) (26 км)
Погода в Шахтах (Ростовская область, Россия) (59 км)
Погода в Зерноград (Ростовская область, Россия) (60 км)
Погода в Таганроге (Ростовская область, Россия) (70 км)
Погода в Матвеевом Кургане (Ростовская область, Россия) (78 км)
Погода в Семикаракорске (Ростовская область, Россия) (81 км)
Погода в Маргаритово (Ростовская область, Россия) (81 км)
Погода в Кущевской (Краснодарский край, Россия) (84 км)
Погода в Константиновске (Ростовская область, Россия) (102 км)
Погода в Староминская (Краснодарский край, Россия) (102 км)

Пояснения к столбцам:

Ветер - указаны скорость ветра в м/с - средняя за 10 мин, порывы в срок и между сроками (в фигурных скобках) и направление, откуда дует ветер: С - северный, СВ - северо-восточный, В - восточный, ЮВ - юго-восточный, Ю - южный, ЮЗ - юго-западный, З - западный, СЗ - северо-западный.
Видимость - горизонтальная дальность видимости в метрах или километрах. При видимости от 1 до 10 км при отсутствии осадков обычно наблюдается дымка, при ухудшении видимости до 1 км и менее - туман. В сухую погоду видимость может ухудшаться дымом, пылью или мглою.
Явления - указаны атмосферные явления, наблюдавшиеся в срок или в последний час перед сроком; фигурными скобками обозначены явления, наблюдавшиеся между сроками (за 1-3 часа до срока); квадратными скобками обозначены град или гололедные отложения с указанием их диаметра в мм.
Облачность - указаны через наклонную черту общая и нижняя облачность в баллах и высота нижней границы облаков в метрах; квадратными скобками обозначены формы облаков: Ci - перистые, Cs - перисто-слоистые, Cc - перисто-кучевые, Ac - высококучевые, As - высокослоистые, Sc - слоисто-кучевые, Ns - слоисто-дождевые, Cu - кучевые, Cb - кучево-дождевые. Подробнее классификацию облаков см. в Атласе облаков (PDF).
T - Температура воздуха - температура, измеренная на высоте 2 м над землей.
Td - Температура точки росы - температура, при понижении до которой содержащийся в воздухе водяной пар достигнет насыщения.
f - Относительная влажность воздуха - влажноcть воздуха, измеренная на высоте 2 м над землей.
Te - Эффективная температура - температура, которую ощущает одетый по сезону человек в тени. Характеристика душности погоды. При расчете учитывается влияние влажности воздуха и скорости ветра на теплоощущения человека.
Tes - Эффективная температура на солнце - температура, которую ощущает человек, с поправкой на солнечный нагрев. Характеристика знойности погоды. Зависит от высоты солнца над горизонтом, облачности и скорости ветра. Ночью, в пасмурную погоду, а также при ветре 12 м/с и более поправка равна нулю.
P - Атмосферное давление - приведенное к уровню моря атмосферное давление.
Po - Атмосферное давление - измеренное на уровне метеостанции атмосферное давление.
Tmin - Минимальная температура - минимум температуры воздуха на высоте 2 м над землей.
Tmax - Максимальная температура - максимум температуры воздуха на высоте 2 м над землей.
R - Количество осадков - Количество выпавших осадков за период времени, мм. При наведении курсора мыши на число - период времени, за который выпало указанное количество осадков.
R24 - Количество осадков - Количество выпавших осадков за 24 часа, мм.
S - Снежный покров - Высота снежного покрова, см. При наведении курсора мыши на число - состояние снежного покрова и степень покрытия местности в баллах.